Home > Weather > Santiago de Cuba > Past weeks

Flag for Cuba Weather for the Past 2 Weeks in Santiago de Cuba, Cuba

Now
82 °F

Scattered clouds.


Feels Like: 87 °F
Forecast: 74 / 88 °F
Wind: 8 mph from Southwest

Location: Santiago De Cuba - Oriente

Current Time: May 3, 2016 at 8:02:52 PM

Latest Report: May 3, 2016 at 6:50 PM


Visibility: 6 mi

Pressure: 29.95 "Hg

Humidity: 70%

Dew Point: 72 °F

Location of Santiago de CubaLocation

Historic Weather in Santiago de Cuba — Graph

°F

Santiago de Cuba Temperature Yesterday

Maximum temperature yesterday: 86 °F (at 11:50 AM)
Minimum temperature yesterday: 73 °F (at 3:50 AM)
Average temperature yesterday: 80 °F

High & Low Weather Summary for the Past Weeks

 TemperatureHumidityPressure
High86 °F (Apr 24, 11:59 AM)94% (Apr 22, 12:53 PM)30.04 "Hg (Apr 22, 12:53 PM)
Low68 °F (Apr 19, 2:50 AM)40% (Apr 20, 9:50 AM)29.83 "Hg (Apr 26, 3:50 PM)
Average79 °F69%29.94 "Hg
* Reported Apr 18 5:51 PM — May 3 5:50 PM, Santiago de Cuba, Weather by CustomWeather, © 2016

Note: Actual official high and low records may vary slightly from our data, if they occured in-between our weather recording intervals... More about our weather records

Advertising

Santiago de Cuba Weather History for the Previous 24 Hours

Scroll right to see more
 ConditionsComfort  
Time TempWeatherWind HumidityBarometerVisibility
5:50 PM
Tue, May 3
84 °FScattered clouds.10 mph66%29.92 "Hg6 mi
4:51 PM86 °FScattered clouds.10 mph59%29.92 "Hg6 mi
3:50 PM86 °FScattered clouds.9 mph59%29.92 "Hg6 mi
2:52 PM86 °FScattered clouds.10 mph62%29.95 "Hg6 mi
1:52 PM84 °FPassing clouds.8 mph62%29.98 "Hg6 mi
12:51 PM84 °FPassing clouds.8 mph62%29.98 "Hg6 mi
11:51 AM84 °FPassing clouds.7 mph62%30.01 "Hg6 mi
10:50 AM84 °FPassing clouds.7 mph62%30.01 "Hg6 mi
9:51 AM84 °FPassing clouds.5 mph62%30.01 "Hg6 mi
8:51 AM82 °FPassing clouds.5 mph66%30.01 "Hg6 mi
7:53 AM79 °FPassing clouds.2 mph79%30.01 "Hg6 mi
6:52 AM75 °FPassing clouds.3 mph94%29.98 "Hg6 mi
5:50 AM73 °FPassing clouds.5 mph94%29.98 "Hg6 mi
4:50 AM75 °FPassing clouds.3 mph94%29.98 "Hg6 mi
3:50 AM75 °FPassing clouds.3 mph89%29.95 "Hg6 mi
2:50 AM75 °FPassing clouds.5 mph94%29.95 "Hg6 mi
1:50 AM75 °FPassing clouds.5 mph89%29.98 "Hg6 mi
12:50 AM77 °FPassing clouds.3 mph79%29.98 "Hg6 mi
11:51 PM
Mon, May 2
77 °FPassing clouds.5 mph83%30.01 "Hg6 mi
10:52 PM79 °FPassing clouds.5 mph79%30.01 "Hg6 mi
9:52 PM81 °FPassing clouds.8 mph79%29.98 "Hg6 mi
8:51 PM81 °FPassing clouds.5 mph74%29.98 "Hg6 mi
Weather by CustomWeather, © 2016

See weather overviewHow to use our weather pages